Weather History for Cape Girardeau, MO

Change the Weather History Date:

Tuesday, June 25, 2013

  Actual Average Record
Temperature  
Mean Temperature 85 °F 78 °F  
Max Temperature 93 °F 88 °F 100 °F (1971)
Min Temperature 76 °F 67 °F 51 °F (1961)
Degree Days  
Heating Degree Days 0 0  
Month to date heating degree days 0 1  
Since 1 June heating degree days 0 1  
Since 1 July heating degree days 4359 4387  
Cooling Degree Days 20 12  
Month to date cooling degree days 263 245  
Year to date cooling degree days 434 397  
Since 1 June cooling degree days 263 245  
Growing Degree Days 33 (Base 50)    
Moisture  
Dew Point 72 °F    
Average Humidity 70    
Maximum Humidity 88    
Minimum Humidity 52    
Precipitation  
Precipitation 0.00 in 0.12 in 0.98 in (1993)
Month to date precipitation 7.70 3.02  
Year to date precipitation 23.87 24.12  
Sea Level Pressure  
Sea Level Pressure 29.96 in    
Wind  
Wind Speed 10 mph (SSW)    
Max Wind Speed 17 mph    
Max Gust Speed 23 mph    
Visibility 10 miles    
Events      
T = Trace of Precipitation, MM = Missing Value Source: NWS Daily Summary

Daily Weather History Graph

Daily Weather History Graph

Search for Another Location

Airport:

Trip Planner

Search our weather history database for the weather conditions in past years. The results will help you decide how hot, cold, wet, or windy it might be!

Date:

Astronomy

Jun. 25, 2013 Rise Set
Actual Time 5:39 AM CDT 8:22 PM CDT
Civil Twilight 5:08 AM CDT 8:53 PM CDT
Nautical Twilight 4:29 AM CDT 9:32 PM CDT
Astronomical Twilight 3:46 AM CDT 10:15 PM CDT
Moon 10:12 PM CDT (6/25) 8:15 AM CDT (6/25)
Length of Visible Light 15h 45m
Length of Day
14h 43m
Waning Gibbous, 92% of the Moon is Illuminated
Jun 25
Waning Gibbous
Jun 29
Last Quarter
Jul 8
New
Jul 15
First Quarter
Jul 22
Full

Hourly Weather History & Observations

Time (CDT) Temp. Heat Index Dew Point Humidity Pressure Visibility Wind Dir Wind Speed Gust Speed Precip Events Conditions
12:53 AM 75.9 °F - 71.1 °F 85% 29.99 in 9.0 mi South 6.9 mph - N/A   Clear
1:53 AM 75.9 °F - 71.1 °F 85% 29.99 in 9.0 mi SSE 8.1 mph - N/A   Clear
2:53 AM 75.9 °F - 71.1 °F 85% 29.98 in 8.0 mi South 8.1 mph - N/A   Clear
3:53 AM 78.1 °F - 72.0 °F 81% 29.99 in 10.0 mi South 11.5 mph - N/A   Clear
4:53 AM 77.0 °F - 72.0 °F 84% 29.99 in 10.0 mi SSW 9.2 mph - N/A   Clear
5:53 AM 77.0 °F - 72.0 °F 84% 30.00 in 9.0 mi South 9.2 mph - N/A   Clear
6:53 AM 77.0 °F - 73.0 °F 88% 30.02 in 8.0 mi South 6.9 mph - N/A   Clear
7:53 AM 81.0 °F 85.8 °F 73.0 °F 77% 30.02 in 10.0 mi SSW 9.2 mph - N/A   Clear
8:53 AM 84.0 °F 90.2 °F 73.0 °F 69% 30.01 in 10.0 mi SW 12.7 mph - N/A   Clear
9:53 AM 86.0 °F 93.8 °F 73.9 °F 67% 30.01 in 10.0 mi SSW 9.2 mph - N/A   Clear
10:53 AM 88.0 °F 96.5 °F 73.9 °F 63% 30.01 in 10.0 mi SW 12.7 mph 18.4 mph N/A   Clear
11:53 AM 90.0 °F 99.0 °F 73.9 °F 59% 30.00 in 10.0 mi SW 10.4 mph - N/A   Partly Cloudy
12:53 PM 90.0 °F 96.9 °F 72.0 °F 55% 29.99 in 10.0 mi SW 11.5 mph 19.6 mph N/A   Partly Cloudy
1:53 PM 91.9 °F 100.7 °F 73.0 °F 54% 29.97 in 10.0 mi SW 10.4 mph - N/A   Clear
2:53 PM 91.9 °F 99.5 °F 72.0 °F 52% 29.96 in 10.0 mi SW 12.7 mph - N/A   Clear
3:53 PM 91.9 °F 99.5 °F 72.0 °F 52% 29.94 in 10.0 mi SW 15.0 mph 20.7 mph N/A   Clear
4:53 PM 90.0 °F 96.9 °F 72.0 °F 55% 29.90 in 10.0 mi SW 8.1 mph - N/A   Clear
5:53 PM 88.0 °F 94.7 °F 72.0 °F 59% 29.88 in 10.0 mi SW 11.5 mph - N/A   Clear
6:53 PM 87.1 °F 92.8 °F 71.1 °F 59% 29.86 in 10.0 mi SSW 8.1 mph - N/A   Clear
7:53 PM 84.9 °F 90.1 °F 71.1 °F 63% 29.86 in 10.0 mi South 6.9 mph - N/A   Clear
8:53 PM 81.0 °F 84.9 °F 71.1 °F 72% 29.87 in 10.0 mi South 8.1 mph - N/A   Clear
9:53 PM 81.0 °F 84.9 °F 71.1 °F 72% 29.89 in 9.0 mi South 6.9 mph - N/A   Clear
10:53 PM 79.0 °F - 71.1 °F 77% 29.90 in 10.0 mi South 6.9 mph - N/A   Clear
11:53 PM 79.0 °F - 70.0 °F 74% 29.91 in 10.0 mi South 6.9 mph - N/A   Clear